GW3931 Weather Reports


time (UTC)temp
C
wind
direction
speed
KPH
gust
KPH
rain 1hr
cm
rain 24hr
cm
rain mn
cm
humidity
%
barometer
mb
20260507130711 13 153 1.6 3.2 0.00 0.25 0.25 60 1014.5
20260507130209 13 227 0.0 1.6 0.00 0.25 0.25 60 1014.7
20260507125708 13 133 1.6 1.6 0.00 0.25 0.25 58 1014.5
20260507125205 13 146 1.6 9.7 0.00 0.25 0.25 57 1014.4
20260507124701 13 161 0.0 6.4 0.00 0.25 0.25 58 1014.1
20260507124158 13 154 1.6 4.8 0.00 0.25 0.25 60 1014.6
20260507123657 13 142 0.0 4.8 0.00 0.25 0.25 68 1014.5
20260507123154 13 147 0.0 1.6 0.00 0.25 0.25 68 1014.7
20260507122649 13 157 0.0 0.0 0.00 0.25 0.25 68 1014.9
20260507122145 13 186 1.6 4.8 0.00 0.25 0.25 67 1014.4
20260507121641 13 150 0.0 1.6 0.00 0.25 0.25 68 1014.4
20260507121137 13 173 1.6 4.8 0.00 0.25 0.25 68 1014.5
20260507120633 13 157 0.0 1.6 0.00 0.25 0.25 68 1014.3
20260507120130 14 150 0.0 1.6 0.00 0.25 0.25 67 1014.7
20260507115626 13 148 0.0 0.0 0.00 0.25 0.25 68 1014.3
20260507115122 13 157 0.0 3.2 0.00 0.25 0.25 67 1014.3
20260507114618 13 131 1.6 4.8 0.00 0.25 0.25 66 1014.1
20260507114116 13 181 0.0 1.6 0.00 0.25 0.25 67 1014.0
20260507113613 13 134 0.0 1.6 0.00 0.25 0.25 67 1014.0
20260507113110 13 151 0.0 1.6 0.00 0.25 0.25 69 1014.2
20260507112608 13 149 0.0 1.6 0.00 0.25 0.25 69 1014.0
20260507112104 13 157 0.0 1.6 0.00 0.25 0.25 70 1014.3
20260507111601 13 164 0.0 0.0 0.00 0.25 0.25 71 1014.0
20260507111058 13 168 0.0 3.2 0.00 0.25 0.25 70 1014.1
20260507110554 13 148 0.0 3.2 0.00 0.25 0.25 70 1013.9
20260507110051 13 151 0.0 4.8 0.00 0.25 0.25 70 1013.9
20260507105548 13 149 0.0 3.2 0.00 0.25 0.25 73 1013.9
20260507105044 13 172 1.6 1.6 0.00 0.25 0.25 73 1014.0
20260507104541 13 152 0.0 0.0 0.00 0.25 0.25 75 1013.7
20260507104037 13 169 0.0 1.6 0.00 0.25 0.25 77 1013.8
20260507103534 13 165 0.0 0.0 0.00 0.25 0.25 80 1013.8
20260507103031 13 159 0.0 1.6 0.00 0.25 0.25 79 1013.8
20260507102527 13 150 0.0 3.2 0.00 0.25 0.25 80 1013.7
20260507102023 13 156 1.6 6.4 0.00 0.25 0.25 80 1013.6
20260507101519 13 134 3.2 4.8 0.00 0.25 0.25 81 1013.6
20260507101015 13 159 1.6 4.8 0.00 0.25 0.25 82 1013.4
20260507100513 13 192 6.4 6.4 0.00 0.25 0.25 82 1013.1
20260507100011 13 143 0.0 1.6 0.00 0.25 0.25 83 1013.4
20260507095508 13 157 0.0 1.6 0.00 0.25 0.25 82 1013.4
20260507095005 13 160 0.0 3.2 0.00 0.25 0.25 82 1013.4
20260507094501 13 159 0.0 0.0 0.00 0.25 0.25 83 1013.5
20260507093958 13 165 1.6 4.8 0.00 0.25 0.25 82 1013.7
20260507093456 13 146 1.6 4.8 0.00 0.25 0.25 82 1013.5
20260507092954 13 123 4.8 6.4 0.00 0.25 0.25 82 1013.3
20260507092450 13 176 1.6 4.8 0.00 0.25 0.25 83 1013.1
20260507091947 13 177 3.2 4.8 0.00 0.25 0.25 83 1013.2
20260507091444 13 137 1.6 4.8 0.00 0.25 0.25 83 1013.2
20260507090939 13 182 1.6 4.8 0.00 0.25 0.25 83 1013.4
20260507090435 13 163 3.2 4.8 0.00 0.25 0.25 83 1013.4
20260507085932 13 154 0.0 1.6 0.00 0.25 0.25 85 1013.3
20260507085429 13 170 0.0 1.6 0.00 0.25 0.25 85 1013.4
20260507084927 13 220 3.2 6.4 0.00 0.25 0.25 85 1013.4
20260507084423 13 176 3.2 4.8 0.00 0.25 0.25 86 1013.0
20260507083915 13 156 0.0 0.0 0.00 0.25 0.25 87 1013.0
20260507083411 13 193 1.6 3.2 0.00 0.25 0.25 87 1013.1
20260507082908 13 155 0.0 1.6 0.00 0.25 0.25 89 1013.2
20260507082404 13 156 0.0 0.0 0.00 0.25 0.25 88 1013.1
20260507081901 13 129 0.0 0.0 0.00 0.25 0.25 88 1012.9
20260507081357 13 225 3.2 3.2 0.00 0.25 0.25 88 1012.9
20260507080854 13 187 1.6 3.2 0.00 0.25 0.25 88 1012.8
20260507080350 13 145 0.0 1.6 0.00 0.25 0.25 87 1012.6
20260507075846 13 152 0.0 4.8 0.00 0.25 0.25 85 1012.5
20260507075341 13 212 1.6 3.2 0.00 0.25 0.25 86 1012.7
20260507074838 13 141 3.2 3.2 0.00 0.25 0.25 85 1012.5
20260507074336 13 220 1.6 3.2 0.00 0.25 0.25 85 1012.5
20260507073833 13 222 1.6 11.3 0.00 0.25 0.25 87 1012.5
20260507073329 13 157 0.0 0.0 0.00 0.25 0.25 90 1012.2
20260507072826 14 162 0.0 1.6 0.00 0.25 0.25 91 1012.2
20260507072323 14 157 0.0 0.0 0.00 0.25 0.25 91 1012.1
20260507071821 14 186 1.6 3.2 0.00 0.25 0.25 91 1012.4
20260507071318 14 166 0.0 0.0 0.00 0.25 0.25 92 1012.1
20260507070814 14 159 0.0 1.6 0.00 0.25 0.25 91 1012.1
20260507070312 14 167 0.0 1.6 0.00 0.25 0.25 91 1012.3
20260507065808 14 161 0.0 1.6 0.00 0.25 0.25 91 1012.2
20260507065306 14 150 0.0 0.0 0.00 0.25 0.25 92 1012.2
20260507064802 14 176 1.6 3.2 0.00 0.25 0.25 92 1012.2
20260507064301 14 164 0.0 1.6 0.00 0.25 0.25 92 1012.2
20260507063758 14 153 0.0 0.0 0.00 0.25 0.25 92 1012.1
20260507063255 14 153 0.0 0.0 0.00 0.25 0.25 92 1012.3
20260507062752 14 158 0.0 0.0 0.00 0.25 0.25 92 1012.4
20260507062249 14 194 1.6 3.2 0.00 0.25 0.25 92 1012.1
20260507061747 14 160 0.0 4.8 0.00 0.25 0.25 92 1011.9
20260507061244 14 152 0.0 1.6 0.00 0.25 0.25 92 1012.1
20260507060743 14 151 0.0 3.2 0.18 0.25 0.25 92 1012.3
20260507060239 14 132 1.6 1.6 0.18 0.25 0.25 92 1011.8
20260507055735 14 156 0.0 4.8 0.00 0.23 0.23 91 1012.0
20260507055230 14 148 0.0 3.2 0.00 0.23 0.23 91 1012.3
20260507054727 14 182 0.0 1.6 0.13 0.23 0.23 91 1012.2
20260507054224 15 168 1.6 1.6 0.13 0.23 0.23 90 1012.1
20260507053722 15 191 0.0 1.6 0.00 0.20 0.20 90 1012.2
20260507053219 15 156 0.0 0.0 0.00 0.20 0.20 90 1012.2
20260507052718 15 171 0.0 1.6 0.00 0.20 0.20 89 1012.4
20260507052214 15 177 1.6 3.2 0.00 0.20 0.20 89 1011.9
20260507051712 15 174 0.0 1.6 0.00 0.20 0.20 89 1011.8
20260507051208 15 146 0.0 1.6 0.00 0.20 0.20 89 1012.3
20260507050705 15 157 0.0 1.6 0.00 0.20 0.20 89 1012.4
20260507050202 15 166 1.6 1.6 0.00 0.20 0.20 88 1012.4
20260507045658 15 156 0.0 1.6 0.18 0.20 0.20 89 1012.2
20260507045156 15 159 0.0 1.6 0.30 0.20 0.20 88 1012.1
20260507044652 16 179 3.2 6.4 0.30 0.18 0.18 87 1013.0
20260507044149 16 158 1.6 1.6 0.48 0.15 0.15 87 1011.7
20260507043645 16 172 0.0 0.0 0.61 0.13 0.13 85 1012.3
20260507043142 17 179 0.0 0.0 0.36 0.05 0.05 83 1012.5
20260507042638 17 190 0.0 3.2 0.18 0.03 0.03 81 1012.5
20260507042132 17 138 0.0 1.6 0.00 0.00 0.00 79 1012.1
20260507041630 17 150 0.0 0.0 0.00 0.00 0.00 79 1012.0
20260507041121 17 186 0.0 1.6 0.00 0.00 0.00 78 1012.4
20260507040618 17 169 1.6 3.2 0.00 0.00 0.00 79 1012.4
20260507040115 17 177 1.6 9.7 0.00 0.00 0.00 79 1011.9
20260507035610 17 155 0.0 1.6 0.00 0.58 0.58 78 1011.9
20260507035101 18 196 0.0 1.6 0.00 0.58 0.58 76 1012.1
20260507034558 18 162 1.6 3.2 0.00 0.58 0.58 73 1011.7
20260507034056 18 218 0.0 6.4 0.00 0.58 0.58 72 1012.2
20260507033554 18 243 3.2 3.2 0.00 0.58 0.58 73 1011.8
20260507033051 18 157 0.0 1.6 0.00 0.58 0.58 74 1011.6
20260507032548 18 158 1.6 1.6 0.00 0.58 0.58 74 1011.8
20260507032044 18 151 0.0 1.6 0.00 0.58 0.58 76 1011.8
20260507031541 18 177 0.0 0.0 0.00 0.58 0.58 76 1011.6
20260507031038 18 162 0.0 1.6 0.00 0.58 0.58 76 1011.1
20260507030534 18 170 0.0 1.6 0.00 0.58 0.58 76 1011.1
20260507030032 18 159 0.0 1.6 0.00 0.58 0.58 76 1011.1
20260507025529 18 156 0.0 4.8 0.00 0.58 0.58 75 1011.3
20260507025027 19 157 0.0 1.6 0.00 0.58 0.58 76 1011.3
20260507024524 19 153 0.0 3.2 0.00 0.58 0.58 77 1011.1
20260507024021 19 170 0.0 3.2 0.00 0.58 0.58 78 1011.3
20260507023516 19 205 0.0 1.6 0.00 0.58 0.58 79 1011.3
20260507023014 19 181 0.0 3.2 0.00 0.58 0.58 80 1010.8
20260507022510 20 157 0.0 1.6 0.00 0.58 0.58 82 1010.9
20260507022006 20 153 0.0 1.6 0.00 0.58 0.58 82 1010.7
20260507021501 20 179 1.6 4.8 0.00 0.58 0.58 83 1010.9
20260507020958 20 151 1.6 4.8 0.00 0.58 0.58 82 1010.8
20260507020455 20 146 0.0 0.0 0.00 0.58 0.58 83 1010.7
20260507015952 20 173 0.0 0.0 0.00 0.58 0.58 82 1010.6
20260507015451 20 154 0.0 0.0 0.00 0.58 0.58 82 1010.5
20260507014948 20 178 0.0 0.0 0.00 0.58 0.58 82 1010.8
20260507014444 20 169 0.0 0.0 0.00 0.58 0.58 82 1010.6
20260507013940 20 162 0.0 0.0 0.00 0.58 0.58 82 1010.5
20260507013437 20 161 0.0 0.0 0.00 0.58 0.58 82 1010.7
20260507012935 20 177 0.0 0.0 0.00 0.58 0.58 82 1010.9
20260507012431 20 152 0.0 0.0 0.00 0.58 0.58 82 1010.9
20260507011928 20 143 0.0 0.0 0.00 0.58 0.58 81 1010.8
20260507011425 20 156 0.0 0.0 0.00 0.58 0.58 81 1011.0
20260507010925 20 154 0.0 0.0 0.00 0.58 0.58 81 1011.0
20260507010421 20 158 0.0 0.0 0.00 0.58 0.58 81 1011.2
20260507005918 20 156 0.0 0.0 0.00 0.58 0.58 81 1011.0
20260507005415 20 154 0.0 0.0 0.00 0.58 0.58 81 1011.0
20260507004911 20 149 0.0 0.0 0.00 0.58 0.58 81 1010.7
20260507004408 20 144 0.0 0.0 0.00 0.58 0.58 81 1010.7
20260507003906 20 169 0.0 0.0 0.00 0.58 0.58 81 1010.8
20260507003401 20 161 0.0 0.0 0.00 0.58 0.58 80 1010.4
20260507002856 20 164 0.0 0.0 0.00 0.58 0.58 80 1010.5
20260507002352 20 160 0.0 0.0 0.00 0.58 0.58 80 1010.6
20260507001850 20 156 0.0 0.0 0.00 0.58 0.58 80 1010.4
20260507001346 20 156 0.0 0.0 0.00 0.58 0.58 80 1010.4
20260507000843 20 159 0.0 0.0 0.00 0.58 0.58 79 1010.2
20260507000338 21 160 0.0 0.0 0.00 0.58 0.58 79 1010.4
20260506235835 21 159 0.0 0.0 0.00 0.58 0.58 79 1010.5
20260506235332 21 159 0.0 0.0 0.00 0.58 0.58 79 1010.2
20260506234828 21 159 0.0 0.0 0.00 0.58 0.58 79 1010.2
20260506234326 21 174 0.0 0.0 0.00 0.58 0.58 78 1010.1
20260506233823 21 161 0.0 0.0 0.00 0.58 0.58 78 1010.0
20260506233319 21 184 0.0 0.0 0.00 0.58 0.58 78 1010.0
20260506232816 21 211 0.0 1.6 0.00 0.58 0.58 78 1010.1
20260506232311 21 154 0.0 1.6 0.00 0.58 0.58 78 1009.9
20260506231809 21 192 1.6 3.2 0.00 0.58 0.58 77 1009.9
20260506231307 21 234 1.6 1.6 0.00 0.58 0.58 77 1009.8
20260506230804 21 177 0.0 1.6 0.00 0.58 0.58 77 1010.0
20260506230300 21 239 1.6 3.2 0.00 0.58 0.58 77 1010.0
20260506225756 21 170 0.0 0.0 0.00 0.58 0.58 77 1009.8
20260506225254 21 153 1.6 4.8 0.00 0.58 0.58 77 1009.7
20260506224750 21 147 0.0 1.6 0.00 0.58 0.58 77 1009.6
20260506224248 21 284 3.2 4.8 0.00 0.58 0.58 77 1009.8
20260506223744 21 147 1.6 3.2 0.00 0.58 0.58 77 1009.8
20260506223239 21 161 0.0 3.2 0.00 0.58 0.58 76 1009.9
20260506222731 21 142 1.6 3.2 0.00 0.58 0.58 76 1009.6
20260506222226 21 160 0.0 1.6 0.00 0.58 0.58 77 1009.7
20260506221724 21 171 0.0 1.6 0.00 0.58 0.58 77 1009.7
20260506221222 21 118 0.0 6.4 0.00 0.58 0.58 77 1009.8
20260506220719 21 278 3.2 3.2 0.00 0.58 0.58 76 1009.8
20260506220213 21 183 1.6 4.8 0.00 0.58 0.58 77 1009.8
20260506215710 21 139 1.6 3.2 0.00 0.58 0.58 77 1009.8
20260506215206 21 271 4.8 9.7 0.00 0.58 0.58 76 1009.8
20260506214703 21 295 3.2 4.8 0.00 0.58 0.58 76 1009.8
20260506214200 21 293 4.8 9.7 0.00 0.58 0.58 75 1009.7
20260506213659 21 113 3.2 4.8 0.00 0.58 0.58 75 1009.9
20260506213155 21 258 1.6 3.2 0.00 0.58 0.58 75 1009.7
20260506212654 21 124 1.6 9.7 0.00 0.58 0.58 75 1009.9
20260506212153 21 214 1.6 12.9 0.00 0.58 0.58 76 1009.7
20260506211644 21 278 3.2 4.8 0.00 0.58 0.58 75 1009.8
20260506211141 21 40 3.2 9.7 0.00 0.58 0.58 75 1009.6
20260506210638 21 268 1.6 9.7 0.00 0.58 0.58 75 1009.5
20260506210134 21 156 1.6 11.3 0.00 0.58 0.58 76 1009.2
20260506205631 21 309 6.4 6.4 0.00 0.58 0.58 75 1009.3
20260506205126 21 253 3.2 6.4 0.00 0.58 0.58 75 1009.5
20260506204625 21 193 0.0 3.2 0.00 0.58 0.58 75 1009.2
20260506204121 21 118 1.6 11.3 0.00 0.58 0.58 76 1009.4
20260506203620 21 328 1.6 9.7 0.00 0.58 0.58 76 1009.4
20260506203116 21 231 6.4 14.5 0.00 0.58 0.58 77 1009.3
20260506202614 21 199 6.4 9.7 0.00 0.58 0.58 75 1009.3
20260506202110 21 87 1.6 9.7 0.00 0.58 0.58 77 1009.1
20260506201607 21 293 4.8 11.3 0.00 0.58 0.58 77 1009.2
20260506201103 21 306 3.2 11.3 0.00 0.58 0.58 77 1009.2
20260506200600 21 223 3.2 9.7 0.00 0.58 0.58 78 1009.4
20260506200057 20 126 0.0 6.4 0.00 0.58 0.58 78 1009.6
20260506195553 20 70 6.4 9.7 0.00 0.58 0.58 77 1009.5
20260506195050 20 262 9.7 14.5 0.00 0.58 0.58 77 1009.5
20260506194548 20 297 6.4 12.9 0.00 0.58 0.58 78 1009.5
20260506194044 20 230 6.4 14.5 0.00 0.58 0.58 77 1009.4
20260506193542 20 85 3.2 12.9 0.00 0.58 0.58 78 1009.3
20260506193038 20 236 3.2 11.3 0.00 0.58 0.58 78 1009.3
20260506192535 20 138 6.4 11.3 0.00 0.58 0.58 77 1009.5
20260506192031 20 237 6.4 16.1 0.00 0.58 0.58 79 1009.5
20260506191528 20 320 9.7 14.5 0.00 0.58 0.58 79 1009.8
20260506191024 20 304 9.7 20.9 0.00 0.58 0.58 79 1009.8
20260506190521 20 285 6.4 12.9 0.00 0.58 0.58 79 1009.9
20260506190019 20 321 3.2 11.3 0.00 0.58 0.58 79 1009.9
20260506185516 20 315 6.4 12.9 0.00 0.58 0.58 79 1009.9
20260506185012 20 127 4.8 12.9 0.00 0.58 0.58 79 1010.2
20260506184509 20 340 3.2 4.8 0.00 0.58 0.58 79 1010.0
20260506184007 20 84 1.6 9.7 0.00 0.58 0.58 79 1010.0
20260506183503 20 129 3.2 6.4 0.00 0.58 0.58 79 1010.0
20260506183000 20 292 6.4 11.3 0.00 0.58 0.58 79 1010.0
20260506182456 20 209 6.4 16.1 0.00 0.58 0.58 79 1009.9
20260506181953 20 93 4.8 9.7 0.00 0.58 0.58 79 1010.4
20260506181451 19 346 9.7 14.5 0.00 0.58 0.58 79 1010.3
20260506180947 20 198 9.7 16.1 0.00 0.58 0.58 79 1010.4
20260506180443 20 189 1.6 9.7 0.00 0.58 0.58 79 1010.4
20260506175935 20 290 3.2 14.5 0.00 0.58 0.58 80 1010.4
20260506175432 20 101 1.6 9.7 0.00 0.58 0.58 80 1010.3
20260506174928 20 58 6.4 11.3 0.00 0.58 0.58 79 1010.5
20260506174426 20 183 1.6 4.8 0.00 0.58 0.58 81 1010.6
20260506173917 19 249 3.2 9.7 0.00 0.58 0.58 81 1010.8
20260506173414 19 301 6.4 6.4 0.00 0.58 0.58 81 1010.7
20260506172911 19 18 4.8 12.9 0.00 0.58 0.58 82 1010.7
20260506172408 18 131 0.0 12.9 0.00 0.58 0.58 83 1010.7
20260506171905 18 318 9.7 17.7 0.00 0.58 0.58 82 1010.6
20260506171403 18 276 6.4 14.5 0.00 0.58 0.58 82 1010.7
20260506170900 18 241 6.4 12.9 0.00 0.58 0.58 82 1010.7
20260506170355 18 234 9.7 14.5 0.00 0.58 0.58 83 1010.9
20260506165855 18 259 3.2 4.8 0.00 0.58 0.58 84 1010.7
20260506165352 18 253 4.8 11.3 0.00 0.58 0.58 84 1010.8
20260506164843 18 239 3.2 12.9 0.00 0.58 0.58 85 1010.9
20260506164340 18 72 8.0 12.9 0.00 0.58 0.58 84 1010.9
20260506163838 18 217 3.2 6.4 0.00 0.58 0.58 86 1010.9
20260506163332 18 189 4.8 11.3 0.00 0.58 0.58 86 1011.1
20260506162827 18 281 3.2 6.4 0.00 0.58 0.58 88 1010.9
20260506162325 17 322 6.4 12.9 0.00 0.58 0.58 88 1011.2
20260506161822 17 282 4.8 12.9 0.00 0.58 0.58 89 1010.8
20260506161319 17 212 3.2 12.9 0.00 0.58 0.58 90 1011.0
20260506160812 17 277 4.8 12.9 0.00 0.58 0.58 90 1011.1
20260506160308 17 18 3.2 9.7 0.00 0.58 0.58 91 1011.0
20260506155807 17 223 3.2 6.4 0.00 0.58 0.58 92 1011.1
20260506155306 17 203 1.6 4.8 0.00 0.58 0.58 92 1011.3
20260506153415 16 148 0.0 3.2 0.00 0.58 0.58 94 1011.6
20260506152912 17 40 4.8 14.5 0.00 0.58 0.58 94 1011.6
20260506152409 16 117 3.2 9.7 0.13 0.58 0.58 94 1011.5
20260506151908 16 171 1.6 4.8 0.30 0.58 0.58 94 1011.4
20260506151404 16 61 1.6 4.8 0.30 0.56 0.56 93 1011.6
20260506150902 16 151 0.0 4.8 0.30 0.53 0.53 93 1011.8
20260506150358 16 34 1.6 4.8 0.18 0.51 0.51 93 1011.8
20260506145855 16 112 1.6 9.7 0.13 0.48 0.48 93 1012.1
20260506145351 16 148 0.0 6.4 0.30 0.48 0.48 93 1012.0
20260506144849 16 140 1.6 1.6 0.18 0.46 0.46 93 1012.3
20260506144345 16 143 1.6 9.7 0.00 0.43 0.43 93 1012.0
20260506143844 16 239 1.6 4.8 0.00 0.43 0.43 93 1012.1
20260506143340 16 143 0.0 4.8 0.13 0.43 0.43 93 1012.2
20260506142839 16 72 1.6 3.2 0.13 0.43 0.43 93 1012.4
20260506142336 16 147 0.0 3.2 0.30 0.41 0.41 93 1012.0
20260506141834 16 87 0.0 3.2 0.48 0.41 0.41 92 1012.3
20260506141332 16 140 0.0 4.8 0.48 0.36 0.36 92 1012.1
20260506140830 16 103 0.0 6.4 0.30 0.30 0.30 91 1012.1
20260506140326 16 128 1.6 3.2 0.48 0.28 0.28 91 1011.9
20260506135824 16 145 3.2 4.8 0.43 0.25 0.25 90 1012.0
20260506135320 17 64 1.6 3.2 0.30 0.20 0.20 90 1012.1
20260506134817 17 156 1.6 4.8 0.30 0.18 0.18 89 1012.3
20260506134313 17 120 1.6 1.6 0.18 0.13 0.13 88 1012.3
20260506133810 17 157 0.0 3.2 0.30 0.13 0.13 88 1012.2
20260506133307 17 154 1.6 3.2 0.30 0.10 0.10 86 1012.5
20260506132803 17 341 3.2 4.8 0.18 0.08 0.08 85 1012.5
20260506132301 17 160 3.2 4.8 0.13 0.05 0.05 84 1012.3
20260506131759 17 170 1.6 6.4 0.13 0.05 0.05 83 1012.3
20260506131254 17 132 1.6 3.2 0.00 0.03 0.03 82 1012.6